Location: Santa Maria di Sala
(45.5070°N, 12.0300°E)
Time: 15:39:12
(UTC+01:00)

BlueWalker 3 - Pass Details

Date: 29 September 2023
Orbit: 489 x 504 km, 53.2° (Epoch: 01 December)

Event Time Altitude Azimuth Distance (km) Brightness Sun altitude
Exits shadow 05:49:10 13° 310° (NW) 1,517 4.0 -14.4°
Maximum altitude 05:52:26 51° 25° (NNE) 640 2.7 -13.8°
Drops below altitude 10° 05:56:14 10° 103° (ESE) 1,715 5.8 -13.2°
Sets 05:58:31 0° 108° (ESE) 2,623 6.8 -12.8°
